Location: Shenandoah County Park
(38.9356°N, 78.4524°W)
Time: 06:50:42
(UTC-05:00)

N. Korean satellite - Pass Details

Date: 02 December 2021
Orbit: 446 x 491 km, 97.3° (Epoch: 19 January)

Event Time Altitude Azimuth Distance (km) Brightness Sun altitude
Rises 17:32:03 0° 201° (SSW) 2,543 10.9 -7.9°
Reaches altitude 10° 17:34:37 10° 221° (SW) 1,660 10.4 -8.4°
Maximum altitude 17:37:07 18° 265° (W) 1,239 9.8 -8.8°
Drops below altitude 10° 17:39:37 10° 310° (NW) 1,650 9.7 -9.3°
Sets 17:42:06 0° 330° (NNW) 2,500 10.3 -9.7°
